| time (UTC) | temp F | wind direction | speed MPH | gust MPH | rain 1hr in | rain 24hr in | rain mn in | humidity % | barometer mb |
| 20260506223030 | 55 | 143 | 1.0 | 3.0 | 0.00 | 1.11 | 1.11 | 86 | 1015.4 |
| 20260506221528 | 55 | 113 | 2.0 | 4.0 | 0.00 | 1.11 | 1.11 | 85 | 1015.0 |
| 20260506220032 | 55 | 0 | 1.0 | 5.0 | 0.00 | 1.11 | 1.11 | 85 | 1015.0 |
| 20260506214531 | 55 | 109 | 3.0 | 7.0 | 0.00 | 1.11 | 1.11 | 85 | 1014.8 |
| 20260506213028 | 55 | 110 | 2.0 | 6.0 | 0.00 | 1.11 | 1.11 | 86 | 1014.3 |
| 20260506211530 | 54 | 125 | 3.0 | 8.0 | 0.00 | 1.11 | 1.11 | 85 | 1014.8 |
| 20260506210027 | 54 | 53 | 5.0 | 11.0 | 0.00 | 1.11 | 1.11 | 86 | 1015.2 |
| 20260506204529 | 54 | 86 | 3.0 | 8.0 | 0.00 | 1.12 | 1.11 | 90 | 1014.3 |
| 20260506203029 | 53 | 106 | 1.0 | 6.0 | 0.01 | 1.12 | 1.11 | 90 | 1014.8 |
| 20260506201528 | 52 | 0 | 2.0 | 8.0 | 0.02 | 1.12 | 1.11 | 92 | 1015.0 |
| 20260506200029 | 52 | 111 | 2.0 | 4.0 | 0.07 | 1.12 | 1.11 | 93 | 1015.4 |
| 20260506194535 | 52 | 32 | 1.0 | 3.0 | 0.09 | 1.12 | 1.11 | 93 | 1015.8 |
| 20260506193031 | 52 | 0 | 0.0 | 2.0 | 0.11 | 1.11 | 1.10 | 93 | 1016.8 |
| 20260506191533 | 52 | 0 | 0.0 | 2.0 | 0.14 | 1.10 | 1.09 | 92 | 1016.3 |
| 20260506190030 | 52 | 0 | 0.0 | 3.0 | 0.11 | 1.04 | 1.04 | 92 | 1017.3 |
| 20260506184530 | 51 | 316 | 1.0 | 6.0 | 0.10 | 1.02 | 1.01 | 92 | 1015.9 |
| 20260506183030 | 52 | 345 | 1.0 | 4.0 | 0.08 | 0.99 | 0.98 | 92 | 1016.8 |
| 20260506181527 | 52 | 304 | 0.0 | 3.0 | 0.05 | 0.96 | 0.95 | 90 | 1017.6 |
| 20260506180032 | 52 | 110 | 0.0 | 3.0 | 0.03 | 0.94 | 0.93 | 90 | 1016.7 |
| 20260506174528 | 52 | 0 | 0.0 | 3.0 | 0.01 | 0.92 | 0.91 | 89 | 1017.0 |
| 20260506173030 | 52 | 7 | 1.0 | 7.0 | 0.00 | 0.91 | 0.90 | 89 | 1017.2 |
| 20260506171532 | 52 | 303 | 1.0 | 4.0 | 0.00 | 0.91 | 0.90 | 89 | 1016.0 |
| 20260506170029 | 52 | 0 | 2.0 | 5.0 | 0.00 | 0.91 | 0.90 | 88 | 1016.5 |
| 20260506164528 | 52 | 50 | 3.0 | 5.0 | 0.00 | 0.91 | 0.90 | 86 | 1016.2 |
| 20260506163031 | 52 | 57 | 2.0 | 6.0 | 0.00 | 0.91 | 0.90 | 88 | 1016.0 |
| 20260506161528 | 52 | 319 | 1.0 | 2.0 | 0.00 | 0.91 | 0.90 | 88 | 1016.6 |
| 20260506160030 | 52 | 92 | 1.0 | 4.0 | 0.00 | 0.91 | 0.90 | 89 | 1015.6 |
| 20260506154530 | 51 | 84 | 1.0 | 5.0 | 0.00 | 0.92 | 0.90 | 89 | 1016.0 |
| 20260506153040 | 51 | 82 | 2.0 | 5.0 | 0.00 | 0.92 | 0.90 | 88 | 1015.7 |
| 20260506151529 | 51 | 139 | 1.0 | 7.0 | 0.00 | 0.92 | 0.90 | 89 | 1016.2 |
| 20260506150030 | 51 | 119 | 1.0 | 6.0 | 0.00 | 0.92 | 0.90 | 89 | 1016.0 |
| 20260506144550 | 51 | 97 | 1.0 | 5.0 | 0.00 | 0.94 | 0.90 | 90 | 1016.3 |
| 20260506143028 | 50 | 0 | 0.0 | 8.0 | 0.00 | 0.94 | 0.90 | 91 | 1016.0 |
| 20260506141528 | 50 | 95 | 3.0 | 9.0 | 0.00 | 0.94 | 0.90 | 92 | 1015.5 |
| 20260506140040 | 49 | 0 | 1.0 | 7.0 | 0.01 | 0.94 | 0.90 | 93 | 1015.6 |
| 20260506134533 | 49 | 49 | 0.0 | 6.0 | 0.01 | 0.98 | 0.90 | 94 | 1015.9 |
| 20260506133028 | 49 | 72 | 1.0 | 4.0 | 0.01 | 0.98 | 0.90 | 94 | 1015.9 |
| 20260506131535 | 49 | 104 | 1.0 | 10.0 | 0.46 | 0.98 | 0.90 | 94 | 1015.5 |
| 20260506130026 | 49 | 78 | 2.0 | 8.0 | 0.54 | 0.97 | 0.89 | 94 | 1015.2 |
| 20260506124530 | 49 | 0 | 0.0 | 2.0 | 0.57 | 1.02 | 0.89 | 94 | 1015.1 |
| 20260506123037 | 49 | 27 | 2.0 | 7.0 | 0.57 | 1.02 | 0.89 | 94 | 1014.2 |
| 20260506121529 | 50 | 316 | 2.0 | 6.0 | 0.10 | 0.55 | 0.42 | 94 | 1015.4 |
| 20260506120033 | 50 | 64 | 3.0 | 5.0 | 0.03 | 0.48 | 0.35 | 94 | 1013.7 |
| 20260506114528 | 50 | 66 | 2.0 | 7.0 | 0.01 | 0.47 | 0.32 | 94 | 1013.1 |
| 20260506113034 | 50 | 73 | 1.0 | 3.0 | 0.01 | 0.47 | 0.32 | 94 | 1012.7 |
| 20260506111527 | 50 | 0 | 0.0 | 5.0 | 0.02 | 0.47 | 0.32 | 94 | 1012.9 |
| 20260506110040 | 50 | 74 | 2.0 | 6.0 | 0.15 | 0.47 | 0.32 | 94 | 1012.5 |
| 20260506104530 | 50 | 77 | 1.0 | 5.0 | 0.15 | 0.49 | 0.31 | 94 | 1012.6 |
| 20260506103030 | 50 | 0 | 2.0 | 6.0 | 0.15 | 0.49 | 0.31 | 94 | 1012.0 |
| 20260506101532 | 50 | 66 | 3.0 | 8.0 | 0.14 | 0.48 | 0.30 | 94 | 1011.7 |
| 20260506100028 | 51 | 84 | 2.0 | 4.0 | 0.01 | 0.35 | 0.17 | 94 | 1011.3 |
| 20260506094531 | 51 | 86 | 1.0 | 8.0 | 0.03 | 0.34 | 0.16 | 94 | 1011.8 |
| 20260506093034 | 51 | 125 | 1.0 | 4.0 | 0.07 | 0.34 | 0.16 | 94 | 1012.0 |
| 20260506091528 | 51 | 210 | 2.0 | 7.0 | 0.07 | 0.34 | 0.16 | 94 | 1011.7 |
| 20260506090037 | 51 | 87 | 4.0 | 8.0 | 0.09 | 0.34 | 0.16 | 94 | 1010.7 |
| 20260506084537 | 52 | 72 | 1.0 | 12.0 | 0.05 | 0.30 | 0.12 | 94 | 1012.4 |
| 20260506083032 | 52 | 98 | 3.0 | 7.0 | 0.02 | 0.27 | 0.09 | 93 | 1012.0 |
| 20260506081528 | 52 | 56 | 5.0 | 12.0 | 0.02 | 0.27 | 0.09 | 92 | 1010.8 |
| 20260506073030 | 53 | 350 | 4.0 | 10.0 | 0.06 | 0.25 | 0.07 | 93 | 1009.9 |
| 20260506071531 | 54 | 85 | 2.0 | 13.0 | 0.06 | 0.25 | 0.07 | 93 | 1009.7 |
| 20260506061528 | 58 | 166 | 4.0 | 10.0 | 0.01 | 0.19 | 0.01 | 93 | 1008.8 |
| 20260506044543 | 69 | 132 | 0.0 | 1.0 | 0.00 | 0.18 | 0.18 | 97 | 1005.9 |
| 20260506043028 | 69 | 0 | 0.0 | 0.0 | 0.00 | 0.18 | 0.18 | 96 | 1006.7 |
| 20260506041533 | 69 | 0 | 0.0 | 0.0 | 0.00 | 0.18 | 0.18 | 96 | 1006.7 |
| 20260506040028 | 69 | 0 | 0.0 | 0.0 | 0.00 | 0.18 | 0.18 | 96 | 1006.6 |
| 20260506034528 | 69 | 0 | 0.0 | 0.0 | 0.00 | 0.18 | 0.18 | 96 | 1006.5 |
| 20260506033030 | 69 | 0 | 0.0 | 0.0 | 0.00 | 0.18 | 0.18 | 96 | 1006.1 |
| 20260506031542 | 69 | 0 | 0.0 | 0.0 | 0.00 | 0.18 | 0.18 | 96 | 1006.0 |
| 20260506030032 | 70 | 0 | 0.0 | 0.0 | 0.00 | 0.18 | 0.18 | 96 | 1006.4 |
| 20260506024532 | 70 | 0 | 0.0 | 1.0 | 0.00 | 0.18 | 0.18 | 96 | 1006.4 |
| 20260506023028 | 69 | 0 | 0.0 | 0.0 | 0.00 | 0.18 | 0.18 | 95 | 1006.4 |
| 20260506021529 | 69 | 0 | 0.0 | 0.0 | 0.00 | 0.18 | 0.18 | 95 | 1006.2 |
| 20260506020030 | 69 | 0 | 0.0 | 0.0 | 0.00 | 0.18 | 0.18 | 94 | 1006.2 |
| 20260506014530 | 70 | 0 | 0.0 | 0.0 | 0.00 | 0.18 | 0.18 | 94 | 1006.1 |
| 20260506013030 | 70 | 0 | 0.0 | 0.0 | 0.00 | 0.18 | 0.18 | 94 | 1006.0 |
| 20260506011527 | 70 | 0 | 0.0 | 0.0 | 0.00 | 0.18 | 0.18 | 93 | 1005.8 |
| 20260506010047 | 70 | 0 | 0.0 | 0.0 | 0.00 | 0.18 | 0.18 | 93 | 1005.8 |
| 20260506004527 | 70 | 0 | 0.0 | 0.0 | 0.00 | 0.18 | 0.18 | 93 | 1005.5 |
| 20260506003030 | 71 | 0 | 0.0 | 0.0 | 0.00 | 0.18 | 0.18 | 93 | 1005.1 |
| 20260506001530 | 71 | 0 | 0.0 | 0.0 | 0.00 | 0.18 | 0.18 | 92 | 1005.6 |
| 20260506000029 | 71 | 0 | 0.0 | 0.0 | 0.00 | 0.18 | 0.18 | 92 | 1005.6 |
| 20260505234527 | 71 | 0 | 0.0 | 0.0 | 0.00 | 0.18 | 0.18 | 92 | 1005.5 |
| 20260505233028 | 72 | 0 | 0.0 | 0.0 | 0.00 | 0.18 | 0.18 | 91 | 1005.2 |
| 20260505231529 | 72 | 0 | 0.0 | 0.0 | 0.00 | 0.18 | 0.18 | 92 | 1005.5 |
| 20260505230038 | 72 | 0 | 0.0 | 0.0 | 0.00 | 0.18 | 0.18 | 92 | 1005.7 |
| 20260505224533 | 72 | 0 | 0.0 | 0.0 | 0.00 | 0.18 | 0.18 | 92 | 1005.6 |